Home > Time Zones > World Clock > Weather > Oman > Muscat > Past weeks

Flag for Oman Weather past 2 weeks in Muscat, Oman

Now
90 °F

Passing clouds.


Feels Like: 96 °F
Forecast: 81 / 85 °F
Wind: 15 mph from Northeast

Location: International Airport

Current Time: Oct 25, 2014 at 12:18:58 PM

Latest Report: Oct 25, 2014 at 11:50 AM


Visibility: N/A

Pressure: 29.86 "Hg

Humidity: 55%

Dew point: 72 °F

Location of MuscatLocation

Historic Weather in Muscat — Graph

°F

Muscat temperature yesterday

Maximum temperature yesterday: 90 °F (at 12:50 PM)
Minimum temperature yesterday: 79 °F (at 4:50 AM)
Average temperature yesterday: 84 °F

Past Weeks' High & Low Weather Summary

 TemperatureHumidityPressure
High104 °F (Oct 19, 11:50 AM)89% (Oct 11, 3:50 AM)30.01 "Hg (Oct 11, 3:50 AM)
Low75 °F (Oct 16, 4:50 AM)12% (Oct 19, 11:50 AM)29.77 "Hg (Oct 12, 1:50 PM)
Average87 °F55%29.88 "Hg
* Reported Oct 10 10:50 AM — Oct 25 10:50 AM, Muscat, Weather by CustomWeather, © 2014

Note: Actual official high and low records may vary slightly from our data, if they occured in-between our weather recording intervals... More about our weather records

Advertising

Muscat weather history for previous 24 hours

 ConditionsComfort  
Time TempWeatherWind HumidityBarometerVisibility
10:50 AM
Oct 25
90 °FPassing clouds.9 mph63%29.89 "HgN/A
9:50 AM90 °FSunny.2 mph55%29.89 "Hg10 mi
8:50 AM86 °FPassing clouds.5 mph70%29.92 "HgN/A
7:50 AM84 °FPassing clouds.5 mph62%29.89 "HgN/A
6:50 AM81 °FPassing clouds.3 mph79%29.89 "HgN/A
5:50 AM81 °FPassing clouds.6 mph79%29.86 "HgN/A
4:50 AM79 °FClear.5 mph74%29.83 "Hg10 mi
3:50 AM79 °FClear.7 mph70%29.83 "Hg10 mi
2:50 AM79 °FClear.No wind70%29.83 "Hg10 mi
1:50 AM81 °FClear.No wind66%29.83 "Hg10 mi
12:50 AM82 °FClear.2 mph62%29.83 "Hg10 mi
11:50 PM
Oct 24
82 °FClear.No wind70%29.86 "Hg10 mi
10:50 PM84 °FPassing clouds.5 mph66%29.86 "HgN/A
9:50 PM84 °FClear.No wind62%29.86 "Hg10 mi
8:50 PM84 °FClear.5 mph66%29.89 "Hg10 mi
7:50 PM84 °FClear.8 mph74%29.86 "Hg10 mi
6:50 PM84 °FClear.9 mph70%29.86 "Hg10 mi
5:50 PM84 °FPassing clouds.12 mph74%29.86 "HgN/A
4:50 PM86 °FPassing clouds.10 mph70%29.83 "HgN/A
3:50 PM86 °FPassing clouds.9 mph70%29.83 "HgN/A
2:50 PM88 °FPassing clouds.12 mph66%29.83 "HgN/A
1:50 PM90 °FPassing clouds.9 mph63%29.86 "HgN/A
12:50 PM90 °FPassing clouds.9 mph67%29.86 "HgN/A
Weather by CustomWeather, © 2014

See weather overviewHow to use our weather pages